Welcome to the New NWS' Forecast!
Most changes are behind the scenes, but click here for differences you might notice.

Regional Weather Roundup (RWR)

Issued by National Weather Service (NWS)

                            
544 
ASUS42 KTBW 201217
RWRFL 
FLORIDA REGIONAL WEATHER ROUNDUP
NATIONAL WEATHER SERVICE TAMPA BAY RUSKIN FL
800 AM EDT MON AUG 20 2018

NOTE: "FAIR" INDICATES FEW OR NO CLOUDS BELOW 12,000 FEET WITH NO
SIGNIFICANT WEATHER AND/OR OBSTRUCTIONS TO VISIBILITY.

FLZ001>010-012>015-112-114-115-201300-
PANHANDLE FLORIDA
  
CITY           SKY/WX    TMP DP  RH WIND       PRES   REMARKS
PENSACOLA      FAIR      78  75  90 CALM      30.04R                  
PENSACOLA NAS  MOCLDY    78  76  93 CALM      30.03R                  
MILTON NAS     MOCLDY    76  76 100 W3        30.05R                  
CRESTVIEW      FAIR      72  70  93 CALM      30.06R                  
DUKE FIELD     FAIR      74  74 100 CALM      30.04R                  
VALPARAISO     PTCLDY    77  73  88 CALM      30.03R                  
MARY ESTHER    PTCLDY    76  69  77 CALM      30.03R                  
PANAMA CITY    FAIR      75  73  93 CALM      30.05R                  
TYNDALL AFB    HVY RAIN  79  75  89 S9        30.07R                  
APALACHICOLA   FAIR      77  77 100 CALM      30.06R                  

STATION/POSITION SKY/WX   TEMP    WIND        PRES    WAVE   SWELL
                          AIR SEA DIR/SP/G            HT/PER HT/PER
                          (F)     (DEG/KT/KT) (MB)    (FT/S) (FT/S)
30.1N   87.6W              83     220/  8/ 12 1017.3R   1/ 3
29.2N   88.2W                 84  190/  8/  8 1017.5R   1/ 4   2/ 4
28.8N   86.0W              84 85  190/  4/  6 1017.6R   1/ 4
PANAMA CITY BEAC           83 85  220/  5/  6 1018.0R
TOWER C                    83     280/  2/  3 1018.6R

$$
FLZ011-016>038-118-127-128-134-139-239-201300-
NORTH FLORIDA
  
CITY           SKY/WX    TMP DP  RH WIND       PRES   REMARKS
MARIANNA       FAIR      74  74 100 S3        30.06R                  
TALLAHASSEE    FAIR      74  73  97 CALM      30.07R                  
PERRY          FAIR      76  75  96 SE3       30.09R                  
LIVE OAK       MOSUNNY   75  75 100 CALM      30.09R                  
CROSS CITY     FAIR      75 N/A N/A CALM      30.09R                  
LAKE CITY      FAIR      72  72 100 CALM      30.10R                  
GAINESVILLE    FAIR      76  72  87 CALM      30.12R                  
WILLISTON        N/A    N/A N/A N/A MISG        N/A                   
PALATKA        FAIR      73  73 100 CALM      30.10R                  
MAYPORT NAS    PTSUNNY   79  75  87 SW3       30.09R                  
JACKSONVILLE   FAIR      75  74  96 CALM      30.09R                  
JAX NAS        FAIR      76  73  91 W6        30.10R                  
JAX CECIL      SUNNY     73  72  94 CALM      30.09R                  
FERNANDINA BEA FAIR      77  73  86 W5        30.08R                  
ST AUGUSTINE   FAIR      74  72  93 SW6       30.11R                  
PALM COAST     SUNNY     73  72  94 S5        30.10R                  

STATION/POSITION SKY/WX   TEMP    WIND        PRES    WAVE   SWELL
                          AIR SEA DIR/SP/G            HT/PER HT/PER
                          (F)     (DEG/KT/KT) (MB)    (FT/S) (FT/S)
SHELL POINT      NOT AVBL
KEATON BEACH               79      90/  3/  3 1018.9R
CEDAR KEY                  81      20/  2/  3 1018.3R
FERNANDINA                 78 83  250/  4/  6 1019.7R
30.7N   81.3W                 80                N/A     2/ 5
MAYPORT                    78 81  260/  5/  5 1019.2R
31.4N   80.9W              81 82  270/ 10/ 12 1018.6R   2/ 5   2/ 5
ST AUGUSTINE               76 78  240/  6/  7 1019.5R

$$
FLZ040-043>046-052-053-057-058-063-144-201300-
INTERIOR CENTRAL FLORIDA
  
CITY           SKY/WX    TMP DP  RH WIND       PRES   REMARKS
OCALA          FAIR      74  72  93 CALM      30.11R                  
LEESBURG       FAIR      77  76  96 CALM      30.11R                  
SANFORD        FAIR      76  73  91 CALM      30.09R                  
ORLANDO EXEC   FAIR      78  74  87 CALM      30.10R                  
ORLANDO INTL   FAIR      76  74  93 SE5       30.10R                  
KISSIMMEE      FAIR      77  74  90 SE3       30.11R                  
WINTER HAVEN   FAIR      77  74  90 SE5       30.11R                  
LAKELAND       SUNNY     73  72  94 CALM      30.10R                  
BARTOW         SUNNY     72 N/A N/A CALM      30.10R                  
SEBRING        FAIR      75  73  92 CALM      30.09S                  
OKEECHOBEE       N/A     73  72  94 CALM      30.08S                  

$$
FLZ041-047-054-059-064-141-147-201300-
EAST CENTRAL FLORIDA
  
CITY           SKY/WX    TMP DP  RH WIND       PRES   REMARKS
ORMOND BEACH   SUNNY     73  73 100 CALM      30.10R                  
DAYTONA BEACH  FAIR      75  75 100 W3        30.10R                  
DELAND         FAIR      75  72  88 CALM      30.10R                  
NEW SMYRNA BEA SUNNY     73  72  94 CALM      30.11R                  
JFK SPACE CTR  FAIR      76  73  91 CALM      30.09R                  
TITUSVILLE     SUNNY     73  72  94 S7        30.10R                  
CAPE CANAVERAL FAIR      74  72  91 CALM      30.09R                  
PATRICK AFB    FAIR      79  77  94 CALM      30.09R                  
MELBOURNE      FAIR      79  73  82 CALM      30.09R                  
VERO BEACH     FAIR      75  73  93 CALM      30.09R                  
FT PIERCE      FAIR      76  75  97 CALM      30.09R                  
STUART         MOSUNNY   81  77  89 CALM      30.09R                  

STATION/POSITION SKY/WX   TEMP    WIND        PRES    WAVE   SWELL
                          AIR SEA DIR/SP/G            HT/PER HT/PER
                          (F)     (DEG/KT/KT) (MB)    (FT/S) (FT/S)
28.5N   80.2W              81     320/  6/  8 1019.2R   1/ 8   2/ 8
28.9N   78.5W              84 85  170/ 10/ 12 1019.3R   2/ 4   2/ 8
TRIDENT PIER               76 81   40/  2/  2 1020.5R
28.4N   80.5W                 82                N/A     1/ 8

$$
FLZ050-056-061-142-242-148-248-149-249-151-251-155-255-
160-260-201300-
WEST CENTRAL FLORIDA
  
CITY           SKY/WX    TMP DP  RH WIND       PRES   REMARKS
CRYSTAL RIVER    N/A     73  72  94 CALM      30.10R                  
INVERNESS        N/A    N/A N/A N/A CALM      30.11R                  
BROOKSVILLE    FAIR      74  72  93 CALM      30.10R                  
CLEARWATER AIR FAIR      77  72  83 S3        30.08R                  
ST PETE CLEARW FAIR      78  77  96 CALM      30.08R                  
TAMPA INTL     FAIR      80  73  79 CALM      30.09R                  
TAMPA EXEC     FAIR      72  72 100 CALM      30.09R                  
PLANT CITY     FAIR      75  73  94 CALM      30.11R                  
MACDILL AFB    SUNNY     77  75  92 CALM      30.08R                  
PETER O KNIGHT   N/A    N/A N/A N/A E3        30.09R                  
ST PETERSBURG  FAIR      80  73  79 SE7       30.06R                  
SARASOTA       FAIR      75  75 100 SE5       30.07R                  
VENICE         FAIR      77  75  94 E3        30.09R                  

STATION/POSITION SKY/WX   TEMP    WIND        PRES    WAVE   SWELL
                          AIR SEA DIR/SP/G            HT/PER HT/PER
                          (F)     (DEG/KT/KT) (MB)    (FT/S) (FT/S)
CLEARWATER BEACH                  120/  5/  8   N/A
MIDDLE TAMPA BAY           78     160/  8/  9 1018.3R
VENICE                     77 89   90/  6/  7   N/A

$$
FLZ066-069-070-075>078-162-262-165-265-201300-
SOUTHWEST FLORIDA AND KEYS
  
CITY           SKY/WX    TMP DP  RH WIND       PRES   REMARKS
PUNTA GORDA    FAIR      76  72  87 E3        30.10R                  
FT MYERS       FAIR      74  72  93 E5        30.07R                  
SOUTHWEST INTL FAIR      74  71  91 NE5       30.08R                  
MARCO ISLAND   FAIR      75  74  96 MISG      30.08R                  
IMMOKALEE        N/A     75  73  94 CALM      30.08R                  
MARATHON       FAIR      84  76  76 E9        30.05R                  
KEY WEST NAS   FAIR      84  76  76 E13       30.04R                  
KEY WEST INTL  MOSUNNY   82  75  78 E9        30.04R                  

STATION/POSITION SKY/WX   TEMP    WIND        PRES    WAVE   SWELL
                          AIR SEA DIR/SP/G            HT/PER HT/PER
                          (F)     (DEG/KT/KT) (MB)    (FT/S) (FT/S)
NAPLES                     76 86              1018.2R
26.0N   85.6W              84 86  150/  4/  8 1017.4R   1/ 5   2/ 5
DRY TORTUGAS               84     110/ 11/ 12 1017.8R
SAND KEY                   84                 1017.0R
SOMBRERO KEY               84      80/ 12/ 14 1016.8R
LONG KEY                   84 86  120/ 12/ 13 1017.1R
MOLASSES REEF              84 85  130/ 12/ 14 1018.2

$$
FLZ067-068-071>074-168-172>174-201300-
SOUTHEAST FLORIDA 
  
CITY           SKY/WX    TMP DP  RH WIND       PRES   REMARKS
W PALM BEACH   FAIR      84  77  79 S5        30.08R                  
BOCA RATON     MOSUNNY   82  75  78 SE7G14    30.07R                  
FT LAUDER-EXEC FAIR      83  79  88 SE5       30.07R                  
FT LAUDERDALE  FAIR      84  78  82 SE9       30.06R HX  95           
POMPANO BEACH  MOSUNNY   84  75  74 SE8       30.07R                  
OPA LOCKA      FAIR      83  78  85 SE6       30.07R                  
MIAMI          FAIR      83  78  85 SE6       30.07R                  
WEST KENDALL   FAIR      81  77  88 CALM      30.06R                  
HOMESTEAD      FAIR      82  76  82 E5        30.06R                  

STATION/POSITION SKY/WX   TEMP    WIND        PRES    WAVE   SWELL
                          AIR SEA DIR/SP/G            HT/PER HT/PER
                          (F)     (DEG/KT/KT) (MB)    (FT/S) (FT/S)
PORT EVERGLADES            84     130/  8/ 11 1018.0R
VIRGINIA KEY               85 88  100/  7/ 10 1017.6R
LAKE WORTH                 83 85  150/ 10/ 11 1019.2R
FOWEY ROCKS                84 84  110/ 14/ 15 1018.7R
SETTLEMENT POINT           83     130/  6/  8 1018.8R

$$